Fort Knox, KY

2:17 PM EST on February 10, 2016 (GMT -0500)
Godman Army Air Field

Weather History for KFTK - October, 2012

Change the Weather History Date:

Wednesday, October 10, 2012

  Actual Average (KSDF) Record (KSDF)
Temperature  
Mean Temperature 48 °F 61 °F  
Max Temperature 58 °F 72 °F 91 °F (2010)
Min Temperature 36 °F 51 °F 27 °F (1964)
Degree Days  
Heating Degree Days 17 5  
Month to date heating degree days 44  
Since 1 July heating degree days 74  
Cooling Degree Days 0 2  
Month to date cooling degree days 24  
Year to date cooling degree days 1591  
Moisture  
Dew Point 39 °F    
Average Humidity 70    
Maximum Humidity 87    
Minimum Humidity 40    
Precipitation  
Precipitation 0.00 in 0.11 in 2.04 in (2002)
Month to date precipitation 1.06  
Year to date precipitation 35.33  
Snow  
Snow 0.00 in 0.00 in T in (1906)
Month to date snowfall 0.0  
Since 1 July snowfall 0.0  
Since 1 September snowfall 0.0  
Snow Depth -    
Sea Level Pressure  
Sea Level Pressure 30.12 in    
Wind  
Wind Speed 7 mph (West)    
Max Wind Speed 16 mph    
Max Gust Speed 23 mph    
Visibility 10 miles    
Events      
T = Trace of Precipitation, MM = Missing Value Source: NWS Daily Summary

Daily Weather History Graph

Daily Weather History Graph

Search for Another Location

Airport or City:

Trip Planner

Search our weather history database for the weather conditions in past years. The results will help you decide how hot, cold, wet, or windy it might be!

Date:

Astronomy

Oct. 10, 2012 Rise Set
Actual Time 7:48 AM EDT 7:12 PM EDT
Civil Twilight 7:21 AM EDT 7:39 PM EDT
Nautical Twilight 6:51 AM EDT 8:09 PM EDT
Astronomical Twilight 6:20 AM EDT 8:39 PM EDT
Moon 2:28 AM EDT 4:10 PM EDT
Length of Visible Light 12h 17m
Length of Day
11h 24m
Waning Crescent, 27% of the Moon is Illuminated
Oct 10
Waning Crescent
Oct 15
New
Oct 21
First Quarter
Oct 29
Full
Nov 6
Last Quarter

Hourly Weather History & Observations

Time (EDT) Temp. Windchill Dew Point Humidity Pressure Visibility Wind Dir Wind Speed Gust Speed Precip Events Conditions
12:55 AM 46.4 °F 45.2 °F 41.5 °F 83% 29.99 in 10.0 mi SW 3.5 mph - N/A   Clear
1:55 AM 45.0 °F 41.8 °F 40.6 °F 85% 29.99 in 10.0 mi South 5.8 mph - N/A   Partly Cloudy
2:55 AM 46.8 °F - 41.9 °F 83% 29.99 in 10.0 mi SSW 4.6 mph - N/A   Mostly Cloudy
3:55 AM 48.6 °F - 43.7 °F 83% 29.99 in 10.0 mi SSW 6.9 mph - N/A   Overcast
4:55 AM 48.9 °F - 43.7 °F 82% 29.98 in 10.0 mi SSW 6.9 mph - N/A   Partly Cloudy
5:55 AM 46.9 °F - 43.2 °F 87% 30.00 in 10.0 mi SW 5.8 mph - N/A   Partly Cloudy
6:55 AM 48.6 °F - 44.8 °F 87% 30.02 in 10.0 mi WSW 8.1 mph - N/A   Overcast
7:55 AM 50.4 °F - 46.2 °F 86% 30.04 in 10.0 mi West 6.9 mph - N/A   Overcast
8:55 AM 50.9 °F - 45.9 °F 83% 30.08 in 10.0 mi West 6.9 mph - N/A   Overcast
9:55 AM 50.9 °F - 43.7 °F 76% 30.11 in 10.0 mi WNW 10.4 mph - N/A   Overcast
10:55 AM 53.4 °F - 41.9 °F 65% 30.13 in 10.0 mi WNW 11.5 mph - N/A   Partly Cloudy
12:55 PM 56.3 °F - 37.9 °F 50% 30.16 in 10.0 mi West 16.1 mph - N/A   Partly Cloudy
1:55 PM 56.7 °F - 36.9 °F 48% 30.16 in 10.0 mi WNW 11.5 mph - N/A   Partly Cloudy
2:55 PM 58.6 °F - 36.7 °F 44% 30.15 in 10.0 mi West 15.0 mph 19.6 mph N/A   Clear
3:55 PM 58.5 °F - 35.6 °F 42% 30.15 in 10.0 mi West 11.5 mph 23.0 mph N/A   Clear
4:55 PM 57.4 °F - 32.9 °F 40% 30.17 in 10.0 mi West 12.7 mph 19.6 mph N/A   Clear
5:55 PM 55.2 °F - 32.7 °F 43% 30.18 in 10.0 mi WNW 10.4 mph - N/A   Clear
6:55 PM 51.3 °F - 32.2 °F 48% 30.19 in 10.0 mi NW 5.8 mph - N/A   Clear
7:55 PM 43.3 °F 39.9 °F 33.1 °F 67% 30.22 in 10.0 mi WNW 5.8 mph - N/A   Clear
8:55 PM 39.9 °F 36.7 °F 32.0 °F 73% 30.24 in 10.0 mi WNW 4.6 mph - N/A   Clear
9:55 PM 39.9 °F 35.8 °F 33.1 °F 77% 30.25 in 10.0 mi NW 5.8 mph - N/A   Clear
10:55 PM 38.8 °F - 34.3 °F 84% 30.26 in 10.0 mi Calm Calm - N/A   Clear
11:55 PM 36.9 °F - 32.7 °F 85% 30.27 in 10.0 mi Calm Calm - N/A   Clear